| time (UTC) | temp C | wind direction | speed KPH | gust KPH | rain 1hr cm | rain 24hr cm | rain mn cm | humidity % | barometer mb |
| 20260904171005 | 23 | 210 | 9.7 | 24.1 | 0.00 | 0.00 | 0.00 | 50 | 1012.4 |
| 20260904170003 | 23 | 217 | 8.0 | 25.7 | 0.00 | 0.00 | 0.00 | 48 | 1012.3 |
| 20260904165003 | 24 | 162 | 8.0 | 24.1 | 0.00 | 0.00 | 0.00 | 46 | 1012.4 |
| 20260904164004 | 25 | 208 | 11.3 | 24.1 | 0.00 | 0.00 | 0.00 | 42 | 1012.6 |
| 20260904163004 | 26 | 199 | 12.9 | 24.1 | 0.00 | 0.00 | 0.00 | 40 | 1012.8 |
| 20260904162003 | 26 | 199 | 9.7 | 20.9 | 0.00 | 0.00 | 0.00 | 40 | 1012.9 |
| 20260904161004 | 25 | 246 | 11.3 | 17.7 | 0.00 | 0.00 | 0.00 | 43 | 1012.9 |
| 20260904155003 | 24 | 187 | 3.2 | 17.7 | 0.00 | 0.00 | 0.00 | 45 | 1013.2 |
| 20260904152004 | 25 | 186 | 17.7 | 27.4 | 0.00 | 0.00 | 0.00 | 43 | 1013.6 |
| 20260904151003 | 25 | 236 | 6.4 | 17.7 | 0.00 | 0.00 | 0.00 | 42 | 1013.9 |
| 20260904145003 | 26 | 222 | 8.0 | 25.7 | 0.00 | 0.00 | 0.00 | 39 | 1014.2 |
| 20260904144004 | 26 | 228 | 4.8 | 20.9 | 0.00 | 0.00 | 0.00 | 39 | 1014.1 |
| 20260904143004 | 25 | 153 | 6.4 | 27.4 | 0.00 | 0.00 | 0.00 | 41 | 1014.5 |
| 20260904142004 | 25 | 214 | 6.4 | 22.5 | 0.00 | 0.00 | 0.00 | 41 | 1014.7 |
| 20260904140003 | 25 | 243 | 6.4 | 20.9 | 0.00 | 0.00 | 0.00 | 41 | 1014.8 |
| 20260904135004 | 25 | 214 | 12.9 | 25.7 | 0.00 | 0.00 | 0.00 | 40 | 1015.2 |
| 20260904134003 | 26 | 294 | 8.0 | 32.2 | 0.00 | 0.00 | 0.00 | 39 | 1015.0 |
| 20260904132003 | 27 | 271 | 6.4 | 35.4 | 0.00 | 0.00 | 0.00 | 36 | 1015.4 |
| 20260904131004 | 27 | 203 | 8.0 | 33.8 | 0.00 | 0.00 | 0.00 | 36 | 1015.5 |
| 20260904130003 | 27 | 266 | 8.0 | 27.4 | 0.00 | 0.00 | 0.00 | 37 | 1015.6 |
| 20260904124003 | 27 | 251 | 8.0 | 33.8 | 0.00 | 0.00 | 0.00 | 37 | 1015.8 |
| 20260904123004 | 27 | 215 | 17.7 | 27.4 | 0.00 | 0.00 | 0.00 | 36 | 1015.6 |
| 20260904122003 | 26 | 191 | 6.4 | 35.4 | 0.00 | 0.00 | 0.00 | 40 | 1015.7 |
| 20260904121004 | 26 | 163 | 6.4 | 33.8 | 0.00 | 0.00 | 0.00 | 39 | 1016.4 |
| 20260904120003 | 26 | 306 | 6.4 | 22.5 | 0.00 | 0.00 | 0.00 | 41 | 1016.5 |
| 20260904115004 | 25 | 233 | 8.0 | 25.7 | 0.00 | 0.00 | 0.00 | 42 | 1016.8 |
| 20260904114003 | 25 | 215 | 6.4 | 27.4 | 0.00 | 0.00 | 0.00 | 41 | 1016.9 |
| 20260904113004 | 25 | 192 | 8.0 | 24.1 | 0.00 | 0.00 | 0.00 | 43 | 1017.0 |
| 20260904112003 | 24 | 341 | 8.0 | 40.2 | 0.00 | 0.00 | 0.00 | 46 | 1017.0 |
| 20260904111003 | 25 | 264 | 8.0 | 24.1 | 0.00 | 0.00 | 0.00 | 45 | 1017.2 |
| 20260904105003 | 23 | 191 | 6.4 | 24.1 | 0.00 | 0.00 | 0.00 | 53 | 1017.2 |
| 20260904104003 | 23 | 205 | 4.8 | 33.8 | 0.00 | 0.00 | 0.00 | 52 | 1017.4 |
| 20260904102004 | 23 | 261 | 9.7 | 35.4 | 0.00 | 0.00 | 0.00 | 52 | 1017.7 |
| 20260904101003 | 23 | 277 | 11.3 | 35.4 | 0.00 | 0.00 | 0.00 | 50 | 1017.5 |
| 20260904100004 | 23 | 231 | 6.4 | 25.7 | 0.00 | 0.00 | 0.00 | 50 | 1017.5 |
| 20260904094004 | 23 | 280 | 9.7 | 29.0 | 0.00 | 0.00 | 0.00 | 52 | 1017.9 |
| 20260904093004 | 23 | 232 | 6.4 | 33.8 | 0.00 | 0.00 | 0.00 | 52 | 1017.6 |
| 20260904092004 | 23 | 236 | 6.4 | 27.4 | 0.00 | 0.03 | 0.00 | 52 | 1017.9 |
| 20260904091003 | 23 | 216 | 9.7 | 37.0 | 0.00 | 0.03 | 0.00 | 53 | 1017.9 |
| 20260904090004 | 24 | 246 | 11.3 | 27.4 | 0.00 | 0.03 | 0.00 | 51 | 1018.0 |
| 20260904085003 | 23 | 193 | 3.2 | 17.7 | 0.00 | 0.03 | 0.00 | 55 | 1017.9 |
| 20260904083004 | 22 | 242 | 4.8 | 22.5 | 0.00 | 0.03 | 0.00 | 57 | 1018.0 |
| 20260904082004 | 22 | 210 | 6.4 | 24.1 | 0.00 | 0.03 | 0.00 | 55 | 1017.9 |
| 20260904081005 | 21 | 243 | 4.8 | 12.9 | 0.00 | 0.03 | 0.00 | 59 | 1018.1 |
| 20260904080005 | 21 | 270 | 4.8 | 16.1 | 0.00 | 0.03 | 0.00 | 59 | 1018.2 |
| 20260904074006 | 20 | 301 | 3.2 | 24.1 | 0.00 | 0.03 | 0.00 | 63 | 1018.8 |
| 20260903212004 | 16 | 0 | 0.0 | 0.0 | 0.00 | 0.51 | 0.51 | 78 | 1019.5 |
| 20260903211004 | 16 | 0 | 0.0 | 0.0 | 0.00 | 0.51 | 0.51 | 77 | 1019.5 |
| 20260903210005 | 17 | 0 | 0.0 | 0.0 | 0.00 | 0.51 | 0.51 | 76 | 1019.6 |
| 20260903205004 | 17 | 230 | 0.0 | 3.2 | 0.00 | 0.51 | 0.51 | 76 | 1019.5 |
| 20260903204004 | 17 | 225 | 0.0 | 3.2 | 0.00 | 0.51 | 0.51 | 75 | 1019.7 |
| 20260903203005 | 17 | 225 | 0.0 | 3.2 | 0.00 | 0.51 | 0.51 | 74 | 1019.9 |
| 20260903202005 | 17 | 221 | 0.0 | 3.2 | 0.00 | 0.51 | 0.51 | 72 | 1019.6 |
| 20260903201004 | 17 | 225 | 0.0 | 3.2 | 0.00 | 0.51 | 0.51 | 72 | 1019.8 |
| 20260903200005 | 17 | 210 | 0.0 | 3.2 | 0.00 | 0.51 | 0.51 | 71 | 1019.7 |
| 20260903195004 | 17 | 240 | 0.0 | 4.8 | 0.00 | 0.51 | 0.51 | 72 | 1019.8 |
| 20260903194005 | 18 | 243 | 0.0 | 6.4 | 0.00 | 0.51 | 0.51 | 73 | 1020.0 |
| 20260903193005 | 17 | 241 | 1.6 | 4.8 | 0.00 | 0.51 | 0.51 | 72 | 1019.9 |
| 20260903192005 | 18 | 225 | 0.0 | 3.2 | 0.00 | 0.51 | 0.51 | 70 | 1020.0 |
| 20260903191004 | 18 | 225 | 3.2 | 3.2 | 0.00 | 0.51 | 0.51 | 67 | 1019.7 |
| 20260903190005 | 18 | 225 | 1.6 | 3.2 | 0.00 | 0.51 | 0.51 | 65 | 1019.8 |
| 20260903185005 | 19 | 0 | 0.0 | 0.0 | 0.00 | 0.51 | 0.51 | 64 | 1019.8 |
| 20260903184004 | 19 | 0 | 0.0 | 0.0 | 0.00 | 0.51 | 0.51 | 63 | 1019.9 |
| 20260903182005 | 20 | 225 | 0.0 | 1.6 | 0.00 | 0.51 | 0.51 | 61 | 1019.8 |
| 20260903181004 | 20 | 0 | 0.0 | 0.0 | 0.00 | 0.51 | 0.51 | 60 | 1019.8 |
| 20260903180004 | 20 | 0 | 0.0 | 0.0 | 0.00 | 0.51 | 0.51 | 59 | 1019.8 |
| 20260903175004 | 20 | 0 | 0.0 | 0.0 | 0.00 | 0.51 | 0.51 | 57 | 1019.8 |
| 20260903174005 | 20 | 0 | 0.0 | 0.0 | 0.00 | 0.51 | 0.51 | 56 | 1019.7 |
| 20260903173005 | 20 | 0 | 0.0 | 0.0 | 0.00 | 0.51 | 0.51 | 55 | 1019.8 |
| 20260903172005 | 21 | 0 | 0.0 | 0.0 | 0.00 | 0.51 | 0.51 | 52 | 1019.7 |